Time,TemperatureF,DewpointF,PressureIn,WindDirection,WindDirectionDegrees,WindSpeedMPH,WindSpeedGustMPH,Humidity,HourlyPrecipIn,Conditions,Clouds,dailyrainin,SoftwareType,DateUTC
2013-05-07 00:00:00,60.1,49.9,29.99,West,269,0.0,0.0,69,0.00,,,-99.99,Weather View 32 v60,2013-05-07 07:00:00,
2013-05-07 00:10:00,59.9,49.3,29.99,WSW,249,0.0,0.0,68,0.00,,,-99.99,Weather View 32 v60,2013-05-07 07:10:00,
2013-05-07 00:19:00,59.7,49.5,29.99,NW,318,0.0,0.0,69,0.00,,,-99.99,Weather View 32 v60,2013-05-07 07:19:00,
2013-05-07 00:30:00,59.5,49.3,29.99,WNW,295,0.0,0.0,69,0.00,,,-99.99,Weather View 32 v60,2013-05-07 07:30:00,
2013-05-07 00:40:00,59.2,49.4,29.99,North,351,0.0,0.0,70,0.00,,,-99.99,Weather View 32 v60,2013-05-07 07:40:00,
2013-05-07 00:49:00,59.2,49.4,29.99,North,351,0.0,0.0,70,0.00,,,-99.99,Weather View 32 v60,2013-05-07 07:49:00,
2013-05-07 01:00:00,58.3,49.3,29.99,NNE,19,0.0,0.0,72,0.00,,,-99.99,Weather View 32 v60,2013-05-07 08:00:00,
2013-05-07 01:10:00,57.9,49.3,29.99,NNW,347,0.0,0.0,73,0.00,,,-99.99,Weather View 32 v60,2013-05-07 08:10:00,
2013-05-07 01:20:00,57.6,49.3,29.99,NNW,347,0.0,0.0,74,0.00,,,-99.99,Weather View 32 v60,2013-05-07 08:20:00,
2013-05-07 01:30:00,57.2,49.3,29.99,NNW,347,0.0,0.0,75,0.00,,,-99.99,Weather View 32 v60,2013-05-07 08:30:00,
2013-05-07 01:40:00,56.7,49.2,29.99,NNW,347,0.0,0.0,76,0.00,,,-99.99,Weather View 32 v60,2013-05-07 08:40:00,
2013-05-07 01:49:00,56.7,49.2,29.99,NNW,347,0.0,0.0,76,0.00,,,-99.99,Weather View 32 v60,2013-05-07 08:49:00,
2013-05-07 02:00:00,56.1,49.7,29.99,NNW,347,0.0,0.0,79,0.00,,,-99.99,Weather View 32 v60,2013-05-07 09:00:00,
2013-05-07 02:10:00,55.8,49.7,29.96,NNW,347,0.0,0.0,80,0.00,,,-99.99,Weather View 32 v60,2013-05-07 09:10:00,
2013-05-07 02:20:00,55.4,49.7,29.96,NNW,347,0.0,0.0,81,0.04,,,-99.99,Weather View 32 v60,2013-05-07 09:20:00,
2013-05-07 02:30:00,55.0,49.3,29.96,NNW,347,0.0,0.0,81,0.04,,,-99.99,Weather View 32 v60,2013-05-07 09:30:00,
2013-05-07 02:40:00,54.9,49.5,29.96,NNW,347,0.0,0.0,82,0.04,,,-99.99,Weather View 32 v60,2013-05-07 09:40:00,
2013-05-07 02:50:00,54.5,49.8,29.99,NNW,347,0.0,0.0,84,0.04,,,-99.99,Weather View 32 v60,2013-05-07 09:50:00,
2013-05-07 03:00:00,54.3,49.9,29.99,NNW,347,0.0,0.0,85,0.04,,,-99.99,Weather View 32 v60,2013-05-07 10:00:00,
2013-05-07 03:10:00,54.1,49.7,29.96,NNW,347,0.0,0.0,85,0.04,,,-99.99,Weather View 32 v60,2013-05-07 10:10:00,
2013-05-07 03:20:00,54.0,49.5,29.96,NNW,347,0.0,0.0,85,0.00,,,-99.99,Weather View 32 v60,2013-05-07 10:20:00,
2013-05-07 03:30:00,54.0,50.2,29.96,NNW,347,0.0,0.0,87,0.00,,,-99.99,Weather View 32 v60,2013-05-07 10:30:00,
2013-05-07 03:40:00,53.6,49.8,29.99,NNW,347,0.0,0.0,87,0.00,,,-99.99,Weather View 32 v60,2013-05-07 10:40:00,
2013-05-07 03:50:00,53.4,49.6,29.99,NNW,347,0.0,0.0,87,0.00,,,-99.99,Weather View 32 v60,2013-05-07 10:50:00,
2013-05-07 04:00:00,53.4,49.9,29.99,NNW,347,0.0,0.0,88,0.00,,,-99.99,Weather View 32 v60,2013-05-07 11:00:00,
2013-05-07 04:10:00,53.4,49.9,29.99,NNW,347,0.0,0.0,88,0.00,,,-99.99,Weather View 32 v60,2013-05-07 11:10:00,
2013-05-07 04:20:00,53.8,50.6,29.99,NNW,347,0.0,0.0,89,0.00,,,-99.99,Weather View 32 v60,2013-05-07 11:20:00,
2013-05-07 04:30:00,54.1,51.0,29.99,NNW,347,0.0,0.0,89,0.00,,,-99.99,Weather View 32 v60,2013-05-07 11:30:00,
2013-05-07 04:40:00,54.3,51.4,29.99,NNW,347,0.0,0.0,90,0.00,,,-99.99,Weather View 32 v60,2013-05-07 11:40:00,
2013-05-07 04:50:00,54.5,51.6,29.99,NNW,347,0.0,0.0,90,0.00,,,-99.99,Weather View 32 v60,2013-05-07 11:50:00,
2013-05-07 05:00:00,54.5,51.3,29.99,NNW,347,0.0,0.0,89,0.00,,,-99.99,Weather View 32 v60,2013-05-07 12:00:00,
2013-05-07 05:10:00,54.7,51.5,29.99,NNW,347,0.0,0.0,89,0.00,,,-99.99,Weather View 32 v60,2013-05-07 12:10:00,
2013-05-07 05:20:00,54.9,51.7,29.99,NNW,347,0.0,0.0,89,0.00,,,-99.99,Weather View 32 v60,2013-05-07 12:20:00,
2013-05-07 05:30:00,55.0,51.8,29.99,NNW,347,0.0,0.0,89,0.00,,,-99.99,Weather View 32 v60,2013-05-07 12:30:00,
2013-05-07 05:40:00,55.4,52.2,29.99,North,10,0.0,0.0,89,0.00,,,-99.99,Weather View 32 v60,2013-05-07 12:40:00,
2013-05-07 05:50:00,55.4,51.9,29.99,North,10,0.0,0.0,88,0.00,,,-99.99,Weather View 32 v60,2013-05-07 12:50:00,
2013-05-07 05:59:00,55.6,52.1,29.99,North,10,0.0,0.0,88,0.00,,,-99.99,Weather View 32 v60,2013-05-07 12:59:00,
2013-05-07 06:10:00,55.6,52.1,29.99,North,10,0.0,0.0,88,0.00,,,-99.99,Weather View 32 v60,2013-05-07 13:10:00,
2013-05-07 06:19:00,55.6,52.1,29.99,North,10,0.0,0.0,88,0.00,,,-99.99,Weather View 32 v60,2013-05-07 13:19:00,
2013-05-07 06:29:00,55.8,52.3,29.99,North,10,0.0,0.0,88,0.00,,,-99.99,Weather View 32 v60,2013-05-07 13:29:00,
2013-05-07 06:39:00,56.1,52.6,29.99,North,10,0.0,0.0,88,0.00,,,-99.99,Weather View 32 v60,2013-05-07 13:39:00,
2013-05-07 06:49:00,56.5,52.6,29.99,North,10,0.0,0.0,87,0.00,,,-99.99,Weather View 32 v60,2013-05-07 13:49:00,
2013-05-07 06:59:00,56.8,52.7,29.99,North,10,0.0,0.0,86,0.00,,,-99.99,Weather View 32 v60,2013-05-07 13:59:00,
2013-05-07 07:09:00,57.2,52.7,30.02,North,11,0.0,0.0,85,0.00,,,-99.99,Weather View 32 v60,2013-05-07 14:09:00,
2013-05-07 07:19:00,57.7,52.9,30.02,NNE,20,0.0,0.0,84,0.00,,,-99.99,Weather View 32 v60,2013-05-07 14:19:00,
2013-05-07 07:29:00,58.3,53.1,30.02,NNE,20,0.0,0.0,83,0.00,,,-99.99,Weather View 32 v60,2013-05-07 14:29:00,
2013-05-07 07:39:00,59.0,53.2,30.02,WNW,295,0.0,0.0,81,0.00,,,-99.99,Weather View 32 v60,2013-05-07 14:39:00,
2013-05-07 07:49:00,59.7,52.5,30.02,West,263,0.0,0.0,77,0.00,,,-99.99,Weather View 32 v60,2013-05-07 14:49:00,
2013-05-07 07:59:00,61.0,51.9,30.02,WSW,250,0.0,0.0,72,0.00,,,-99.99,Weather View 32 v60,2013-05-07 14:59:00,
2013-05-07 08:09:00,61.5,50.8,30.02,NW,326,0.0,0.0,68,0.00,,,-99.99,Weather View 32 v60,2013-05-07 15:09:00,
2013-05-07 08:19:00,61.5,50.0,30.02,WNW,282,0.0,0.0,66,0.00,,,-99.99,Weather View 32 v60,2013-05-07 15:19:00,
2013-05-07 08:29:00,62.1,50.5,30.02,North,356,0.0,0.0,66,0.00,,,-99.99,Weather View 32 v60,2013-05-07 15:29:00,
2013-05-07 08:39:00,62.6,49.8,30.02,NNW,339,0.0,0.0,63,0.00,,,-99.99,Weather View 32 v60,2013-05-07 15:39:00,
2013-05-07 08:49:00,62.8,49.5,30.02,NNW,337,0.0,0.0,62,0.00,,,-99.99,Weather View 32 v60,2013-05-07 15:49:00,
2013-05-07 08:59:00,63.5,50.2,30.02,SW,231,0.0,0.0,62,0.00,,,-99.99,Weather View 32 v60,2013-05-07 15:59:00,
2013-05-07 09:09:00,64.0,49.8,30.02,North,351,0.0,0.0,60,0.00,,,-99.99,Weather View 32 v60,2013-05-07 16:09:00,
2013-05-07 09:20:00,64.6,49.0,30.02,SE,144,0.0,0.0,57,0.00,,,-99.99,Weather View 32 v60,2013-05-07 16:20:00,
2013-05-07 09:29:00,65.8,49.7,30.02,SW,229,0.0,0.0,56,0.00,,,-99.99,Weather View 32 v60,2013-05-07 16:29:00,
2013-05-07 09:40:00,66.7,48.5,30.02,NNE,26,0.0,0.0,52,0.00,,,-99.99,Weather View 32 v60,2013-05-07 16:40:00,
2013-05-07 09:49:00,67.1,47.2,30.02,SW,235,0.0,0.0,49,0.00,,,-99.99,Weather View 32 v60,2013-05-07 16:49:00,
2013-05-07 09:59:00,67.6,47.7,30.02,SSW,196,0.0,0.0,49,0.00,,,-99.99,Weather View 32 v60,2013-05-07 16:59:00,
2013-05-07 10:10:00,69.1,47.4,30.02,NNW,347,0.0,0.0,46,0.00,,,-99.99,Weather View 32 v60,2013-05-07 17:10:00,
2013-05-07 10:20:00,69.4,45.9,30.02,SW,214,0.0,0.0,43,0.00,,,-99.99,Weather View 32 v60,2013-05-07 17:20:00,
2013-05-07 10:30:00,68.9,46.0,30.02,NW,325,0.0,0.0,44,0.00,,,-99.99,Weather View 32 v60,2013-05-07 17:30:00,
2013-05-07 10:40:00,69.1,46.8,30.02,NW,308,0.0,0.0,45,0.00,,,-99.99,Weather View 32 v60,2013-05-07 17:40:00,
2013-05-07 10:50:00,69.3,45.1,30.02,NE,52,0.0,0.0,42,0.00,,,-99.99,Weather View 32 v60,2013-05-07 17:50:00,
2013-05-07 11:00:00,69.8,45.6,30.02,NE,37,0.0,0.0,42,0.00,,,-99.99,Weather View 32 v60,2013-05-07 18:00:00,
2013-05-07 11:09:00,70.5,45.0,30.02,NNE,33,0.0,0.0,40,0.00,,,-99.99,Weather View 32 v60,2013-05-07 18:09:00,
2013-05-07 11:19:00,70.9,45.9,30.02,WSW,251,0.0,0.0,41,0.00,,,-99.99,Weather View 32 v60,2013-05-07 18:19:00,
2013-05-07 11:29:00,70.2,45.9,30.02,SW,217,7.0,7.0,42,0.00,,,-99.99,Weather View 32 v60,2013-05-07 18:29:00,
2013-05-07 11:39:00,69.3,46.4,30.02,WNW,284,0.0,7.0,44,0.00,,,-99.99,Weather View 32 v60,2013-05-07 18:39:00,
2013-05-07 11:49:00,69.4,46.5,30.02,West,280,0.0,7.0,44,0.00,,,-99.99,Weather View 32 v60,2013-05-07 18:49:00,
2013-05-07 11:59:00,68.9,45.4,30.02,WNW,303,0.0,7.0,43,0.00,,,-99.99,Weather View 32 v60,2013-05-07 18:59:00,
2013-05-07 12:10:00,69.6,45.4,30.02,SW,221,0.0,7.0,42,0.00,,,-99.99,Weather View 32 v60,2013-05-07 19:10:00,
2013-05-07 12:20:00,69.8,45.6,30.02,West,276,0.0,7.0,42,0.00,,,-99.99,Weather View 32 v60,2013-05-07 19:20:00,
2013-05-07 12:30:00,70.2,44.0,30.02,SSW,202,0.0,7.0,39,0.00,,,-99.99,Weather View 32 v60,2013-05-07 19:30:00,
2013-05-07 12:40:00,73.0,45.2,30.02,WNW,282,0.0,7.0,37,0.00,,,-99.99,Weather View 32 v60,2013-05-07 19:40:00,
2013-05-07 12:50:00,73.9,44.5,30.02,SW,233,0.0,7.0,35,0.00,,,-99.99,Weather View 32 v60,2013-05-07 19:50:00,
2013-05-07 12:55:00,73.9,44.5,30.02,SW,233,0.0,7.0,35,0.00,,,-99.99,Weather View 32 v60,2013-05-07 19:55:00,
2013-05-07 13:09:00,74.3,44.0,30.02,WSW,245,0.0,8.0,34,0.00,,,-99.99,Weather View 32 v60,2013-05-07 20:09:00,
2013-05-07 13:19:00,75.4,44.2,30.02,SSW,192,0.0,8.0,33,0.00,,,-99.99,Weather View 32 v60,2013-05-07 20:19:00,
2013-05-07 13:39:00,72.5,43.2,30.02,SW,228,0.0,11.0,35,0.00,,,-99.99,Weather View 32 v60,2013-05-07 20:39:00,
2013-05-07 13:49:00,71.8,44.0,30.02,NW,304,3.0,11.0,37,0.00,,,-99.99,Weather View 32 v60,2013-05-07 20:49:00,
2013-05-07 13:56:00,71.8,44.0,30.02,NW,304,3.0,11.0,37,0.00,,,-99.99,Weather View 32 v60,2013-05-07 20:56:00,
2013-05-07 14:10:00,71.6,45.9,30.02,South,178,0.0,11.0,40,0.00,,,-99.99,Weather View 32 v60,2013-05-07 21:10:00,
2013-05-07 14:19:00,73.2,44.6,30.02,SW,219,3.0,11.0,36,0.00,,,-99.99,Weather View 32 v60,2013-05-07 21:19:00,
2013-05-07 14:29:00,72.7,43.4,30.02,WNW,296,0.0,11.0,35,0.00,,,-99.99,Weather View 32 v60,2013-05-07 21:29:00,
2013-05-07 14:40:00,72.3,45.2,30.02,WSW,254,5.0,11.0,38,0.00,,,-99.99,Weather View 32 v60,2013-05-07 21:40:00,
2013-05-07 14:49:00,72.0,44.2,30.02,NW,326,0.0,11.0,37,0.00,,,-99.99,Weather View 32 v60,2013-05-07 21:49:00,
2013-05-07 14:56:00,72.0,44.2,30.02,NW,326,0.0,11.0,37,0.00,,,-99.99,Weather View 32 v60,2013-05-07 21:56:00,
2013-05-07 15:09:00,72.9,43.5,29.99,South,191,0.0,12.0,35,0.00,,,-99.99,Weather View 32 v60,2013-05-07 22:09:00,
2013-05-07 15:19:00,74.1,43.9,29.99,SW,230,0.0,12.0,34,0.00,,,-99.99,Weather View 32 v60,2013-05-07 22:19:00,
2013-05-07 15:30:00,74.5,43.4,29.99,WNW,297,0.0,12.0,33,0.00,,,-99.99,Weather View 32 v60,2013-05-07 22:30:00,
2013-05-07 15:39:00,75.2,43.2,29.99,WSW,242,0.0,12.0,32,0.00,,,-99.99,Weather View 32 v60,2013-05-07 22:39:00,
2013-05-07 15:50:00,75.2,43.2,29.99,NNW,346,0.0,12.0,32,0.00,,,-99.99,Weather View 32 v60,2013-05-07 22:50:00,
2013-05-07 15:57:00,75.2,43.2,29.99,NNW,346,0.0,12.0,32,0.00,,,-99.99,Weather View 32 v60,2013-05-07 22:57:00,
2013-05-07 16:10:00,74.8,42.9,29.99,West,273,0.0,13.0,32,0.00,,,-99.99,Weather View 32 v60,2013-05-07 23:10:00,
2013-05-07 16:19:00,75.2,43.2,29.99,WSW,243,5.0,13.0,32,0.00,,,-99.99,Weather View 32 v60,2013-05-07 23:19:00,
2013-05-07 16:30:00,75.7,43.7,29.99,SSW,207,8.0,13.0,32,0.00,,,-99.99,Weather View 32 v60,2013-05-07 23:30:00,
2013-05-07 16:40:00,75.4,42.6,29.99,West,278,0.0,13.0,31,0.00,,,-99.99,Weather View 32 v60,2013-05-07 23:40:00,
2013-05-07 16:50:00,74.8,42.1,29.99,NNW,334,5.0,13.0,31,0.00,,,-99.99,Weather View 32 v60,2013-05-07 23:50:00,
2013-05-07 16:57:00,74.8,42.1,29.99,NNW,334,5.0,13.0,31,0.00,,,-99.99,Weather View 32 v60,2013-05-07 23:57:00,
2013-05-07 17:09:00,74.3,42.5,29.99,West,263,0.0,13.0,32,0.00,,,-99.99,Weather View 32 v60,2013-05-08 00:09:00,
2013-05-07 17:20:00,73.8,42.0,29.99,WNW,295,0.0,13.0,32,0.00,,,-99.99,Weather View 32 v60,2013-05-08 00:20:00,
2013-05-07 17:29:00,72.9,41.2,29.99,SSW,199,0.0,13.0,32,0.00,,,-99.99,Weather View 32 v60,2013-05-08 00:29:00,
2013-05-07 17:40:00,72.5,40.9,29.99,West,263,0.0,13.0,32,0.00,,,-99.99,Weather View 32 v60,2013-05-08 00:40:00,
2013-05-07 17:49:00,72.3,41.5,29.99,WSW,245,3.0,13.0,33,0.00,,,-99.99,Weather View 32 v60,2013-05-08 00:49:00,
2013-05-07 17:58:00,72.3,41.5,29.99,WSW,245,3.0,13.0,33,0.00,,,-99.99,Weather View 32 v60,2013-05-08 00:58:00,
2013-05-07 18:09:00,70.9,40.3,29.99,South,190,3.0,12.0,33,0.00,,,-99.99,Weather View 32 v60,2013-05-08 01:09:00,
2013-05-07 18:20:00,70.0,39.5,29.99,SSW,202,3.0,12.0,33,0.00,,,-99.99,Weather View 32 v60,2013-05-08 01:20:00,
2013-05-07 18:29:00,69.6,40.7,29.99,SW,217,0.0,12.0,35,0.00,,,-99.99,Weather View 32 v60,2013-05-08 01:29:00,
2013-05-07 18:40:00,68.9,40.8,29.99,West,261,10.0,13.0,36,0.00,,,-99.99,Weather View 32 v60,2013-05-08 01:40:00,
2013-05-07 18:49:00,68.0,42.1,29.99,WSW,238,3.0,13.0,39,0.00,,,-99.99,Weather View 32 v60,2013-05-08 01:49:00,
2013-05-07 18:58:00,68.0,42.1,29.99,WSW,238,3.0,13.0,39,0.00,,,-99.99,Weather View 32 v60,2013-05-08 01:58:00,
2013-05-07 19:09:00,66.4,43.8,29.99,SW,222,3.0,14.0,44,0.00,,,-99.99,Weather View 32 v60,2013-05-08 02:09:00,
2013-05-07 19:20:00,66.0,44.6,29.99,WSW,257,4.0,14.0,46,0.00,,,-99.99,Weather View 32 v60,2013-05-08 02:20:00,
2013-05-07 19:30:00,65.1,43.8,29.99,WSW,258,3.0,14.0,46,0.00,,,-99.99,Weather View 32 v60,2013-05-08 02:30:00,
2013-05-07 19:40:00,64.4,42.5,30.02,West,274,4.0,14.0,45,0.00,,,-99.99,Weather View 32 v60,2013-05-08 02:40:00,
2013-05-07 19:49:00,63.7,43.0,30.02,WSW,247,0.0,14.0,47,0.00,,,-99.99,Weather View 32 v60,2013-05-08 02:49:00,
2013-05-07 19:59:00,63.7,43.0,30.02,WSW,247,0.0,14.0,47,0.00,,,-99.99,Weather View 32 v60,2013-05-08 02:59:00,
2013-05-07 20:09:00,62.6,44.2,30.02,NNW,347,0.0,10.0,51,0.00,,,-99.99,Weather View 32 v60,2013-05-08 03:09:00,
2013-05-07 20:20:00,62.1,44.2,30.02,West,267,0.0,10.0,52,0.00,,,-99.99,Weather View 32 v60,2013-05-08 03:20:00,
2013-05-07 20:29:00,61.7,44.4,30.02,ENE,63,0.0,10.0,53,0.00,,,-99.99,Weather View 32 v60,2013-05-08 03:29:00,
2013-05-07 20:40:00,61.5,44.7,30.02,West,270,0.0,7.0,54,0.00,,,-99.99,Weather View 32 v60,2013-05-08 03:40:00,
2013-05-07 20:49:00,61.0,45.1,30.05,NNW,333,0.0,5.0,56,0.00,,,-99.99,Weather View 32 v60,2013-05-08 03:49:00,
2013-05-07 20:59:00,61.0,45.1,30.05,NNW,333,0.0,5.0,56,0.00,,,-99.99,Weather View 32 v60,2013-05-08 03:59:00,
2013-05-07 21:09:00,60.4,46.0,30.05,WSW,253,0.0,0.0,59,0.00,,,-99.99,Weather View 32 v60,2013-05-08 04:09:00,
2013-05-07 21:20:00,60.4,45.6,30.05,NW,310,0.0,0.0,58,0.00,,,-99.99,Weather View 32 v60,2013-05-08 04:20:00,
2013-05-07 21:29:00,60.4,47.3,30.05,NNW,334,0.0,0.0,62,0.00,,,-99.99,Weather View 32 v60,2013-05-08 04:29:00,
2013-05-07 21:40:00,60.1,47.8,30.05,NNW,329,0.0,0.0,64,0.00,,,-99.99,Weather View 32 v60,2013-05-08 04:40:00,
2013-05-07 21:49:00,59.7,49.1,30.05,West,280,0.0,0.0,68,0.00,,,-99.99,Weather View 32 v60,2013-05-08 04:49:00,
2013-05-07 22:00:00,59.2,49.4,30.05,NW,325,0.0,0.0,70,0.00,,,-99.99,Weather View 32 v60,2013-05-08 05:00:00,
2013-05-07 22:09:00,58.8,49.4,30.05,WSW,250,0.0,0.0,71,0.00,,,-99.99,Weather View 32 v60,2013-05-08 05:09:00,
2013-05-07 22:20:00,58.5,49.1,30.05,WSW,243,0.0,0.0,71,0.00,,,-99.99,Weather View 32 v60,2013-05-08 05:20:00,
2013-05-07 22:29:00,58.3,49.3,30.05,NW,305,0.0,0.0,72,0.00,,,-99.99,Weather View 32 v60,2013-05-08 05:29:00,
2013-05-07 22:40:00,58.1,49.1,30.05,ENE,73,0.0,0.0,72,0.00,,,-99.99,Weather View 32 v60,2013-05-08 05:40:00,
2013-05-07 22:49:00,57.9,49.3,30.05,ENE,73,0.0,0.0,73,0.00,,,-99.99,Weather View 32 v60,2013-05-08 05:49:00,
2013-05-07 22:59:00,57.9,49.7,30.05,WNW,297,0.0,0.0,74,0.00,,,-99.99,Weather View 32 v60,2013-05-08 05:59:00,
2013-05-07 23:09:00,57.6,49.3,30.05,NNW,345,0.0,0.0,74,0.00,,,-99.99,Weather View 32 v60,2013-05-08 06:09:00,
2013-05-07 23:19:00,57.4,49.5,30.05,SW,232,0.0,0.0,75,0.00,,,-99.99,Weather View 32 v60,2013-05-08 06:19:00,
2013-05-07 23:30:00,57.2,49.7,30.05,North,351,0.0,0.0,76,0.00,,,-99.99,Weather View 32 v60,2013-05-08 06:30:00,
2013-05-07 23:39:00,57.0,49.5,30.05,NW,312,0.0,0.0,76,0.00,,,-99.99,Weather View 32 v60,2013-05-08 06:39:00,
2013-05-07 23:50:00,56.8,50.4,30.05,SW,229,0.0,0.0,79,0.00,,,-99.99,Weather View 32 v60,2013-05-08 06:50:00,
2013-05-07 23:59:00,56.5,49.7,30.05,SW,229,0.0,0.0,78,0.00,,,-99.99,Weather View 32 v60,2013-05-08 06:59:00,